Kenosha, WI

5:41 PM CST on November 20, 2017 (GMT -0600)
Kenosha Regional

Weather History for KENW - April, 2013

Change the Weather History Date:

Wednesday, April 10, 2013

  Actual Average Record
Temperature  
Mean Temperature 37 °F -  
Max Temperature 39 °F 49 °F 82 °F (1977)
Min Temperature 35 °F 32 °F 20 °F (1989)
Degree Days  
Heating Degree Days 28    
Moisture  
Dew Point 35 °F    
Average Humidity 90    
Maximum Humidity 93    
Minimum Humidity 86    
Precipitation  
Precipitation 0.55 in - - ()
Sea Level Pressure  
Sea Level Pressure 29.95 in    
Wind  
Wind Speed 17 mph (NE)    
Max Wind Speed 24 mph    
Max Gust Speed 32 mph    
Visibility 7 miles    
Events Rain , Thunderstorm    
Averages and records for this station are not official NWS values.
T = Trace of Precipitation, MM = Missing Value Source: NWS Daily Summary

Daily Weather History Graph

Daily Weather History Graph

Search for Another Location

Airport or City:

Trip Planner

Search our weather history database for the weather conditions in past years. The results will help you decide how hot, cold, wet, or windy it might be!

Date:

Astronomy

Apr. 10, 2013 Rise Set
Actual Time 6:18 AM CDT 7:28 PM CDT
Civil Twilight 5:49 AM CDT 7:57 PM CDT
Nautical Twilight 5:14 AM CDT 8:32 PM CDT
Astronomical Twilight 4:38 AM CDT 9:08 PM CDT
Moon 6:13 AM CDT (4/10) 8:05 PM CDT (4/10)
Length of Visible Light 14h 08m
Length of Day
13h 10m
New Moon, 0% of the Moon is Illuminated
Apr 10
New Moon
Apr 18
First Quarter
Apr 25
Full
May 2
Last Quarter
May 9
New

Hourly Weather History & Observations

Time (CDT) Temp. Windchill Dew Point Humidity Pressure Visibility Wind Dir Wind Speed Gust Speed Precip Events Conditions
12:53 AM 37.9 °F 30.0 °F 36.0 °F 93% 29.99 in 6.0 mi NE 12.7 mph 24.2 mph 0.01 in Rain Light Rain
1:53 AM 37.9 °F 27.9 °F 35.1 °F 89% 29.95 in 7.0 mi NE 19.6 mph 24.2 mph 0.01 in   Overcast
2:53 AM 37.0 °F 26.4 °F 34.0 °F 89% 29.97 in 10.0 mi NNE 20.7 mph 29.9 mph 0.00 in   Overcast
3:53 AM 36.0 °F 26.0 °F 33.1 °F 89% 29.97 in 5.0 mi NNE 17.3 mph 27.6 mph 0.00 in   Overcast
4:14 AM 35.6 °F 24.2 °F 33.8 °F 93% 29.92 in 5.0 mi NE 21.9 mph 29.9 mph 0.01 in Rain , Thunderstorm Light Rain
4:28 AM 35.6 °F 23.7 °F 33.8 °F 93% 29.92 in 6.0 mi NE 24.2 mph 32.2 mph 0.01 in   Overcast
4:53 AM 36.0 °F 25.3 °F 34.0 °F 93% 29.96 in 5.0 mi NE 19.6 mph - 0.01 in   Overcast
5:33 AM 37.4 °F 27.5 °F 33.8 °F 87% 29.93 in 2.0 mi NE 18.4 mph 26.5 mph N/A   Overcast
5:53 AM 37.0 °F 28.1 °F 34.0 °F 89% 30.04 in 3.0 mi North 15.0 mph 26.5 mph 0.00 in Rain Light Rain
6:01 AM 35.6 °F 24.8 °F 33.8 °F 93% 30.00 in 2.5 mi North 19.6 mph 24.2 mph 0.02 in Rain Rain
6:15 AM 35.6 °F 24.5 °F 33.8 °F 93% 29.96 in 4.0 mi NNE 20.7 mph 29.9 mph 0.03 in Rain Light Rain
6:53 AM 36.0 °F 26.0 °F 33.1 °F 89% 29.96 in 10.0 mi ENE 17.3 mph 29.9 mph 0.03 in Rain , Thunderstorm Light Thunderstorms and Rain
7:31 AM 37.4 °F 27.5 °F 33.8 °F 87% 29.91 in 5.0 mi NE 18.4 mph 21.9 mph 0.12 in Rain , Thunderstorm Thunderstorms and Rain
7:53 AM 37.0 °F 30.4 °F 35.1 °F 93% 30.03 in 5.0 mi NNE 9.2 mph - 0.21 in Rain , Thunderstorm Heavy Thunderstorms and Rain
8:00 AM 37.4 °F 29.8 °F 33.8 °F 87% 29.97 in 2.5 mi NE 11.5 mph - 0.03 in Rain , Thunderstorm Thunderstorms and Rain
8:24 AM 37.4 °F 26.6 °F 33.8 °F 87% 29.84 in 4.0 mi NE 21.9 mph 27.6 mph 0.11 in Rain , Thunderstorm Light Thunderstorms and Rain
8:53 AM 37.0 °F 27.4 °F 35.1 °F 93% 29.86 in 10.0 mi NNE 17.3 mph 25.3 mph 0.12 in Rain Light Rain
9:20 AM 37.4 °F 30.3 °F 35.6 °F 93% 29.90 in 10.0 mi NE 10.4 mph - 0.00 in   Overcast
9:53 AM 37.9 °F 31.5 °F 35.1 °F 89% 29.98 in 10.0 mi NNE 9.2 mph 17.3 mph 0.00 in   Overcast
10:53 AM 39.0 °F 32.3 °F 36.0 °F 89% 30.04 in 10.0 mi North 10.4 mph 16.1 mph N/A   Overcast
11:53 AM 37.9 °F 28.5 °F 35.1 °F 89% 29.99 in 10.0 mi NNE 17.3 mph 27.6 mph N/A   Overcast
12:53 PM 39.0 °F 29.6 °F 36.0 °F 89% 29.94 in 10.0 mi NNE 18.4 mph 28.8 mph N/A   Overcast
1:53 PM 39.0 °F 31.0 °F 36.0 °F 89% 29.99 in 10.0 mi NNE 13.8 mph 24.2 mph N/A   Overcast
2:53 PM 39.0 °F 31.4 °F 36.0 °F 89% 30.03 in 5.0 mi NNE 12.7 mph 20.7 mph 0.00 in   Overcast
3:12 PM 39.2 °F 31.2 °F 35.6 °F 87% 29.99 in 2.0 mi NNE 13.8 mph - N/A   Overcast
3:53 PM 37.9 °F 27.3 °F 36.0 °F 93% 29.96 in 2.0 mi NNE 21.9 mph 28.8 mph N/A   Overcast
4:53 PM 37.9 °F 29.2 °F 35.1 °F 89% 29.97 in 6.0 mi NE 15.0 mph 26.5 mph 0.02 in Rain Light Rain
5:53 PM 37.9 °F 28.2 °F 36.0 °F 93% 29.96 in 6.0 mi NE 18.4 mph - 0.02 in Rain Light Rain
6:53 PM 37.9 °F 28.9 °F 36.0 °F 93% 29.95 in 10.0 mi NE 16.1 mph - 0.01 in   Overcast
7:53 PM 37.9 °F 28.5 °F 35.1 °F 89% 29.89 in 10.0 mi ENE 17.3 mph 27.6 mph N/A   Overcast
8:48 PM 39.2 °F 31.6 °F 35.6 °F 87% 29.92 in 10.0 mi NE 12.7 mph - N/A   Overcast
8:53 PM 39.0 °F 30.3 °F 36.0 °F 89% 29.95 in 10.0 mi NE 16.1 mph - N/A   Overcast
9:53 PM 39.0 °F 29.6 °F 36.0 °F 89% 29.94 in 10.0 mi NE 18.4 mph 24.2 mph N/A   Overcast
10:10 PM 39.2 °F 30.2 °F 35.6 °F 87% 29.93 in 10.0 mi NE 17.3 mph 23.0 mph N/A   Overcast
10:53 PM 39.0 °F 28.5 °F 35.1 °F 86% 29.93 in 9.0 mi ENE 23.0 mph 31.1 mph 0.02 in Rain Light Rain
11:53 PM 37.9 °F 28.2 °F 35.1 °F 89% 29.94 in 5.0 mi ENE 18.4 mph 28.8 mph 0.09 in Rain , Thunderstorm Rain